Weather WX

World > North America > United States > Minnesota

Stillwater, Minnesota Regional Weather

Lat: 45.06N, Lon: 92.82W
Wx Zone: MNZ063
Feedback

Stillwater, MN Regional Weather

Expires:201906180300;;657571
ASUS43 KMPX 180210
RWRMN 
WEATHER ROUNDUP FOR MINNESOTA
NATIONAL WEATHER SERVICE TWIN CITIES/CHANHASSEN MN
900 PM CDT MON JUN 17 2019


NOTE: "FAIR" INDICATES FEW OR NO CLOUDS BELOW 12,000 FEET WITH NO
SIGNIFICANT WEATHER AND/OR OBSTRUCTIONS TO VISIBILITY. N/A MEANS
CURRENT SKY AND/OR WEATHER CONDITIONS ARE NOT AVAILABLE.


MNZ060>063-068>070-180300-
   Twin Cities Metro   
  
CITY           SKY/WX    TMP DP  RH WIND       PRES   REMARKS
TWIN CITIES    MOCLDY    70  53  54 W6        29.97R                  
ST PAUL        CLOUDY    69  53  56 W5        29.96S                  
CRYSTAL        CLOUDY    69  53  56 NW7       29.96R                  
BLAINE         PTCLDY    70  55  60 W6        29.97R                  
EDEN PRAIRIE   MOCLDY    67  54  63 W3        29.97R                  
SOUTH ST PAUL  CLOUDY    70  52  53 W5        29.96S                  
LAKE ELMO        N/A     66  55  68 NW3       29.98R                  
$$

SKY/WX - Weather  TMP - Temperature  DP - Dew Point  RH - Relative Humidity
WIND - Wind Direction/Speed PRES - Barometric Pressure VSB - Visibility
WCI - Wind Chill Index E13G22 Wind - East Wind 13 mph/Gusts of 22 mph